Retour au catalogue

CALSPHERE 2

ActifSciencePO
NORAD 902·PAYLOAD·🇺🇸 United States

Lancé Oct 6, 1964 depuis Vandenberg Space Force Base

Loading…

Prochains Passages (prochaines 24 heures)

TLE

FraisSource: Space-Track

Époque: Sep 14, 2026, 12:31 UTC

1 00902U 64063E   26257.52172433  .00000015  00000-0  93195-5 0  9997
2 00902  90.2290  77.8960 0017665 333.6473  87.0278 13.52906314868341

Suivez CALSPHERE 2 en temps réel avec AllMySat

Download on the App Store